Time,TemperatureF,DewpointF,PressureIn,WindDirection,WindDirectionDegrees,WindSpeedMPH,WindSpeedGustMPH,Humidity,HourlyPrecipIn,Conditions,Clouds,dailyrainin,SoftwareType,DateUTC
2013-11-16 00:04:00,38.7,32.0,30.06,SSW,197,0.0,5.0,77,0.00,,,0.00,weatherlink.com 1.10,2013-11-16 05:04:00,
2013-11-16 00:19:00,38.4,32.0,30.05,South,188,0.0,1.0,77,0.00,,,0.00,weatherlink.com 1.10,2013-11-16 05:19:00,
2013-11-16 00:34:00,38.1,32.0,30.06,South,188,0.0,1.0,78,0.00,,,0.00,weatherlink.com 1.10,2013-11-16 05:34:00,
2013-11-16 00:49:00,37.5,32.0,30.05,South,181,0.0,3.0,80,0.00,,,0.00,weatherlink.com 1.10,2013-11-16 05:49:00,
2013-11-16 01:04:00,37.3,32.0,30.05,SSE,167,0.0,4.0,82,0.00,,,0.00,weatherlink.com 1.10,2013-11-16 06:04:00,
2013-11-16 01:19:00,37.5,33.0,30.05,South,190,0.0,2.0,84,0.00,,,0.00,weatherlink.com 1.10,2013-11-16 06:19:00,
2013-11-16 01:34:00,37.5,33.0,30.05,South,182,0.0,2.0,85,0.00,,,0.00,weatherlink.com 1.10,2013-11-16 06:34:00,
2013-11-16 01:49:00,37.6,34.0,30.05,South,187,2.0,3.0,86,0.00,,,0.00,weatherlink.com 1.10,2013-11-16 06:49:00,
2013-11-16 02:04:00,37.8,35.0,30.05,South,180,0.0,4.0,88,0.00,,,0.00,weatherlink.com 1.10,2013-11-16 07:04:00,
2013-11-16 02:19:00,37.9,35.0,30.05,SSW,195,0.0,3.0,88,0.00,,,0.00,weatherlink.com 1.10,2013-11-16 07:19:00,
2013-11-16 02:34:00,37.9,35.0,30.06,SW,225,0.0,4.0,89,0.00,,,0.00,weatherlink.com 1.10,2013-11-16 07:34:00,
2013-11-16 02:49:00,37.9,35.0,30.05,SW,223,0.0,5.0,90,0.00,,,0.00,weatherlink.com 1.10,2013-11-16 07:49:00,
2013-11-16 03:04:00,38.2,36.0,30.06,SSW,208,1.0,3.0,91,0.00,,,0.00,weatherlink.com 1.10,2013-11-16 08:04:00,
2013-11-16 03:19:00,38.9,37.0,30.06,SSW,198,0.0,2.0,92,0.00,,,0.00,weatherlink.com 1.10,2013-11-16 08:19:00,
2013-11-16 03:34:00,39.4,37.0,30.05,SSW,211,0.0,4.0,92,0.00,,,0.00,weatherlink.com 1.10,2013-11-16 08:34:00,
2013-11-16 03:49:00,40.1,38.0,30.05,SSW,194,2.0,3.0,92,0.00,,,0.00,weatherlink.com 1.10,2013-11-16 08:49:00,
2013-11-16 04:04:00,40.9,39.0,30.05,SSW,199,0.0,5.0,92,0.00,,,0.00,weatherlink.com 1.10,2013-11-16 09:04:00,
2013-11-16 04:19:00,41.5,39.0,30.05,SW,215,1.0,6.0,92,0.00,,,0.00,weatherlink.com 1.10,2013-11-16 09:19:00,
2013-11-16 04:34:00,41.9,40.0,30.05,South,190,1.0,5.0,92,0.00,,,0.00,weatherlink.com 1.10,2013-11-16 09:34:00,
2013-11-16 04:49:00,42.1,40.0,30.05,SSW,208,0.0,4.0,93,0.00,,,0.00,weatherlink.com 1.10,2013-11-16 09:49:00,
2013-11-16 05:04:00,42.4,41.0,30.05,SW,223,1.0,4.0,93,0.00,,,0.00,weatherlink.com 1.10,2013-11-16 10:04:00,
2013-11-16 05:19:00,42.5,41.0,30.06,SSE,152,2.0,6.0,93,0.00,,,0.00,weatherlink.com 1.10,2013-11-16 10:19:00,
2013-11-16 05:34:00,42.6,41.0,30.05,South,180,1.0,6.0,92,0.00,,,0.00,weatherlink.com 1.10,2013-11-16 10:34:00,
2013-11-16 05:49:00,42.7,41.0,30.05,South,175,0.0,5.0,93,0.00,,,0.00,weatherlink.com 1.10,2013-11-16 10:49:00,
2013-11-16 06:04:00,42.9,41.0,30.05,SSE,163,1.0,5.0,93,0.00,,,0.00,weatherlink.com 1.10,2013-11-16 11:04:00,
2013-11-16 06:19:00,43.2,41.0,30.05,SW,217,0.0,6.0,92,0.00,,,0.00,weatherlink.com 1.10,2013-11-16 11:19:00,
2013-11-16 06:34:00,43.4,41.0,30.05,SSW,193,1.0,4.0,92,0.00,,,0.00,weatherlink.com 1.10,2013-11-16 11:34:00,
2013-11-16 06:49:00,43.6,42.0,30.05,SSW,200,1.0,6.0,92,0.00,,,0.00,weatherlink.com 1.10,2013-11-16 11:49:00,
2013-11-16 07:04:00,43.9,42.0,30.04,SSW,193,1.0,6.0,92,0.00,,,0.00,weatherlink.com 1.10,2013-11-16 12:04:00,
2013-11-16 07:19:00,44.2,42.0,30.05,SW,221,2.0,6.0,92,0.00,,,0.00,weatherlink.com 1.10,2013-11-16 12:19:00,
2013-11-16 07:34:00,44.4,42.0,30.05,SSW,194,2.0,5.0,92,0.00,,,0.00,weatherlink.com 1.10,2013-11-16 12:34:00,
2013-11-16 07:49:00,44.7,43.0,30.04,South,173,1.0,6.0,92,0.00,,,0.00,weatherlink.com 1.10,2013-11-16 12:49:00,
2013-11-16 08:05:00,45.2,43.0,30.04,SE,145,2.0,8.0,92,0.00,,,0.00,weatherlink.com 1.10,2013-11-16 13:05:00,
2013-11-16 08:20:00,45.8,44.0,30.05,WSW,237,5.0,11.0,92,0.00,,,0.00,weatherlink.com 1.10,2013-11-16 13:20:00,
2013-11-16 08:35:00,46.3,44.0,30.04,South,178,0.0,6.0,91,0.00,,,0.00,weatherlink.com 1.10,2013-11-16 13:35:00,
2013-11-16 08:50:00,46.6,44.0,30.04,SSW,207,3.0,8.0,91,0.00,,,0.00,weatherlink.com 1.10,2013-11-16 13:50:00,
2013-11-16 09:05:00,46.9,45.0,30.03,SSE,156,2.0,9.0,91,0.00,,,0.00,weatherlink.com 1.10,2013-11-16 14:05:00,
2013-11-16 09:20:00,47.3,45.0,30.03,SW,217,1.0,8.0,91,0.00,,,0.00,weatherlink.com 1.10,2013-11-16 14:20:00,
2013-11-16 09:35:00,47.7,45.0,30.04,SSW,200,3.0,6.0,91,0.00,,,0.00,weatherlink.com 1.10,2013-11-16 14:35:00,
2013-11-16 09:50:00,48.2,46.0,30.04,SE,145,1.0,6.0,90,0.00,,,0.00,weatherlink.com 1.10,2013-11-16 14:50:00,
2013-11-16 10:05:00,48.3,46.0,30.03,South,190,3.0,6.0,90,0.00,,,0.00,weatherlink.com 1.10,2013-11-16 15:05:00,
2013-11-16 10:20:00,48.3,46.0,30.03,SSW,207,4.0,10.0,91,0.00,,,0.00,weatherlink.com 1.10,2013-11-16 15:20:00,
2013-11-16 10:35:00,48.4,46.0,30.03,South,187,1.0,10.0,91,0.00,,,0.00,weatherlink.com 1.10,2013-11-16 15:35:00,
2013-11-16 10:50:00,48.8,46.0,30.02,SE,144,1.0,5.0,91,0.00,,,0.00,weatherlink.com 1.10,2013-11-16 15:50:00,
2013-11-16 11:05:00,49.1,46.0,30.02,SW,221,5.0,10.0,90,0.00,,,0.00,weatherlink.com 1.10,2013-11-16 16:05:00,
2013-11-16 11:20:00,49.6,47.0,30.02,South,187,8.0,9.0,90,0.00,,,0.00,weatherlink.com 1.10,2013-11-16 16:20:00,
2013-11-16 11:35:00,50.3,47.0,30.01,SSW,207,4.0,12.0,89,0.00,,,0.00,weatherlink.com 1.10,2013-11-16 16:35:00,
2013-11-16 11:50:00,50.4,47.0,30.00,SW,214,1.0,10.0,89,0.00,,,0.00,weatherlink.com 1.10,2013-11-16 16:50:00,
2013-11-16 12:20:00,51.2,48.0,29.98,SSW,196,8.0,8.0,89,0.00,,,0.00,weatherlink.com 1.10,2013-11-16 17:20:00,
2013-11-16 12:35:00,52.6,49.0,29.97,SSE,168,3.0,8.0,87,0.00,,,0.00,weatherlink.com 1.10,2013-11-16 17:35:00,
2013-11-16 12:50:00,53.2,49.0,29.95,WSW,242,8.0,12.0,85,0.00,,,0.00,weatherlink.com 1.10,2013-11-16 17:50:00,
2013-11-16 13:05:00,53.7,49.0,29.95,SSW,207,3.0,13.0,85,0.00,,,0.00,weatherlink.com 1.10,2013-11-16 18:05:00,
2013-11-16 13:20:00,53.9,49.0,29.94,SW,216,8.0,16.0,84,0.01,,,0.01,weatherlink.com 1.10,2013-11-16 18:20:00,
2013-11-16 13:35:00,53.9,49.0,29.93,SW,219,1.0,12.0,84,0.01,,,0.01,weatherlink.com 1.10,2013-11-16 18:35:00,
2013-11-16 13:50:00,54.3,49.0,29.93,SE,125,8.0,16.0,82,0.01,,,0.01,weatherlink.com 1.10,2013-11-16 18:50:00,
2013-11-16 14:05:00,53.8,49.0,29.91,SE,146,2.0,15.0,83,0.01,,,0.01,weatherlink.com 1.10,2013-11-16 19:05:00,
2013-11-16 14:20:00,53.3,49.0,29.91,SSW,197,2.0,12.0,84,0.00,,,0.01,weatherlink.com 1.10,2013-11-16 19:20:00,
2013-11-16 14:35:00,53.3,49.0,29.91,SSE,166,1.0,11.0,85,0.00,,,0.01,weatherlink.com 1.10,2013-11-16 19:35:00,
2013-11-16 14:50:00,53.4,49.0,29.91,South,176,4.0,10.0,84,0.00,,,0.01,weatherlink.com 1.10,2013-11-16 19:50:00,
2013-11-16 15:05:00,53.0,49.0,29.90,South,169,2.0,7.0,85,0.00,,,0.01,weatherlink.com 1.10,2013-11-16 20:05:00,
2013-11-16 15:20:00,53.1,49.0,29.90,SSE,159,4.0,9.0,86,0.00,,,0.01,weatherlink.com 1.10,2013-11-16 20:20:00,
2013-11-16 15:35:00,53.5,50.0,29.90,SW,232,4.0,10.0,86,0.00,,,0.01,weatherlink.com 1.10,2013-11-16 20:35:00,
2013-11-16 15:50:00,53.9,50.0,29.90,SSW,206,1.0,10.0,85,0.00,,,0.01,weatherlink.com 1.10,2013-11-16 20:50:00,
2013-11-16 16:06:00,54.4,50.0,29.89,SSW,211,2.0,14.0,84,0.00,,,0.01,weatherlink.com 1.10,2013-11-16 21:06:00,
2013-11-16 16:21:00,54.6,50.0,29.89,SSE,167,5.0,13.0,84,0.00,,,0.01,weatherlink.com 1.10,2013-11-16 21:21:00,
2013-11-16 16:36:00,54.5,50.0,29.88,SE,128,2.0,11.0,84,0.00,,,0.01,weatherlink.com 1.10,2013-11-16 21:36:00,
2013-11-16 16:51:00,54.1,49.0,29.88,WSW,254,6.0,7.0,84,0.00,,,0.01,weatherlink.com 1.10,2013-11-16 21:51:00,
2013-11-16 17:06:00,53.5,49.0,29.88,South,179,5.0,14.0,85,0.00,,,0.01,weatherlink.com 1.10,2013-11-16 22:06:00,
2013-11-16 17:22:00,53.1,49.0,29.88,SSW,194,1.0,7.0,87,0.00,,,0.01,weatherlink.com 1.10,2013-11-16 22:22:00,
2013-11-16 17:36:00,52.9,49.0,29.87,SSE,156,4.0,11.0,87,0.00,,,0.01,weatherlink.com 1.10,2013-11-16 22:36:00,
2013-11-16 17:51:00,52.7,49.0,29.87,South,185,2.0,12.0,88,0.00,,,0.01,weatherlink.com 1.10,2013-11-16 22:51:00,
2013-11-16 18:06:00,52.5,49.0,29.87,SE,135,5.0,9.0,88,0.00,,,0.01,weatherlink.com 1.10,2013-11-16 23:06:00,
2013-11-16 18:21:00,52.4,49.0,29.86,WSW,243,3.0,11.0,89,0.00,,,0.01,weatherlink.com 1.10,2013-11-16 23:21:00,
2013-11-16 18:36:00,52.4,50.0,29.86,South,183,3.0,12.0,90,0.00,,,0.01,weatherlink.com 1.10,2013-11-16 23:36:00,
2013-11-16 18:51:00,52.7,50.0,29.85,SSW,202,1.0,14.0,90,0.00,,,0.01,weatherlink.com 1.10,2013-11-16 23:51:00,
2013-11-16 19:06:00,52.9,50.0,29.85,South,180,8.0,11.0,90,0.00,,,0.01,weatherlink.com 1.10,2013-11-17 00:06:00,
2013-11-16 19:21:00,53.2,50.0,29.85,South,184,4.0,14.0,90,0.00,,,0.01,weatherlink.com 1.10,2013-11-17 00:21:00,
2013-11-16 19:36:00,53.2,50.0,29.85,SSW,209,3.0,10.0,90,0.00,,,0.01,weatherlink.com 1.10,2013-11-17 00:36:00,
2013-11-16 19:51:00,53.5,51.0,29.85,SW,236,3.0,9.0,90,0.00,,,0.01,weatherlink.com 1.10,2013-11-17 00:51:00,
2013-11-16 20:06:00,53.8,51.0,29.83,SSW,206,0.0,14.0,90,0.00,,,0.01,weatherlink.com 1.10,2013-11-17 01:06:00,
2013-11-16 20:21:00,54.3,52.0,29.82,SSW,207,2.0,8.0,90,0.00,,,0.01,weatherlink.com 1.10,2013-11-17 01:21:00,
2013-11-16 20:36:00,54.8,52.0,29.82,SW,216,3.0,9.0,91,0.00,,,0.01,weatherlink.com 1.10,2013-11-17 01:36:00,
2013-11-16 20:51:00,55.3,53.0,29.81,SW,220,9.0,10.0,91,0.00,,,0.01,weatherlink.com 1.10,2013-11-17 01:51:00,
2013-11-16 21:06:00,55.4,53.0,29.81,SW,226,4.0,10.0,91,0.00,,,0.01,weatherlink.com 1.10,2013-11-17 02:06:00,
2013-11-16 21:21:00,55.7,54.0,29.81,SSE,148,2.0,9.0,92,0.00,,,0.01,weatherlink.com 1.10,2013-11-17 02:21:00,
2013-11-16 21:36:00,55.8,54.0,29.80,SW,217,0.0,9.0,93,0.00,,,0.01,weatherlink.com 1.10,2013-11-17 02:36:00,
2013-11-16 21:51:00,55.7,54.0,29.80,SSW,200,6.0,9.0,94,0.01,,,0.02,weatherlink.com 1.10,2013-11-17 02:51:00,
2013-11-16 22:06:00,55.8,54.0,29.79,WSW,248,7.0,7.0,95,0.01,,,0.02,weatherlink.com 1.10,2013-11-17 03:06:00,
2013-11-16 22:21:00,55.9,55.0,29.78,South,182,3.0,9.0,95,0.02,,,0.03,weatherlink.com 1.10,2013-11-17 03:21:00,
2013-11-16 22:36:00,56.0,55.0,29.78,South,186,1.0,7.0,95,0.02,,,0.03,weatherlink.com 1.10,2013-11-17 03:36:00,
2013-11-16 22:51:00,56.1,55.0,29.78,SSW,213,0.0,8.0,95,0.01,,,0.03,weatherlink.com 1.10,2013-11-17 03:51:00,
2013-11-16 23:21:00,56.4,55.0,29.78,South,182,4.0,8.0,95,0.04,,,0.00,weatherlink.com 1.10,2013-11-17 04:21:00,
2013-11-16 23:36:00,56.2,55.0,29.77,South,186,0.0,5.0,95,0.05,,,0.01,weatherlink.com 1.10,2013-11-17 04:36:00,
2013-11-16 23:51:00,56.5,55.0,29.76,SSE,153,0.0,7.0,96,0.08,,,0.04,weatherlink.com 1.10,2013-11-17 04:51:00,